Location: *
(40.4270°N, 9.4940°E)
Time: 08:48:11
(UTC+02:00)

Okean 2 - Visible Passes

Search period start: 28 May 2017 00:00
Search period end: 07 June 2017 00:00
Orbit: 561 x 580 km, 82.5° (Epoch: 27 May)

Date Brightness Start Highest point End Pass type
(mag) Time Alt. Az. Time Alt. Az. Time Alt. Az.
28 May 5.0 22:33:56 10° SW 22:37:38 32° WNW 22:41:21 10° NNW visible
29 May 5.5 22:36:18 10° SW 22:39:42 25° WNW 22:43:09 10° NNW visible
30 May 5.9 22:38:45 10° WSW 22:41:48 20° WNW 22:44:52 10° NNW visible
31 May 6.2 22:41:23 10° WSW 22:43:54 16° WNW 22:46:27 10° NNW visible
01 Jun 6.4 22:44:17 10° W 22:46:02 12° WNW 22:47:46 10° NW visible
06 Jun 4.9 21:15:05 10° SSW 21:18:57 41° WNW 21:22:52 10° N visible
